Regional Weather Roundup
Issued by NWS

Home | Current Version | Previous Version | Text Only | Print | Product List | Glossary On
Versions: 1 2 3 4 5 6 7 8 9 10 11 12 13 14 15 16 17 18 19 20 21 22 23 24 25 26 27 28 29 30 31 32 33 34 35 36 37 38 39 40 41 42 43 44 45 46 47 48 49 50
000
ASUS44 KEWX 271612
RWRTX
SOUTH TEXAS REGIONAL WEATHER ROUNDUP
NATIONAL WEATHER SERVICE AUSTIN/SAN ANTONIO TX
1000 AM CST MON FEB 27 2017

NOTE: "FAIR" INDICATED FEW OR NO CLOUDS BELOW 12,000 FEET WITH NO
SIGNIFICANT WEATHER AND/OR OBSTRUCTIONS TO VISIBILITY.

* - THESE STATIONS ARE NOT NWS OR FAA STATIONS...AND ARE NOT SUBJECT
    TO NWS AND FAA QUALITY CONTROL.

TXZ171-172-183>190-271700-
TEXAS HILL COUNTRY AND EDWARDS PLATEAU

CITY           SKY/WX    TMP DP  RH WIND       PRES   REMARKS
JUNCTION       CLOUDY    66  60  81 CALM      29.96R
*LLANO         CLOUDY    68  63  83 CALM      30.00R
BURNET         CLOUDY    69  62  78 S10G18    30.00R
*HORSESHOE BAY   N/A     69  63  81 SE6       29.97R
*KERRVILLE     CLOUDY    64  63  96 S8        29.99R FOG
*FREDERICKSBRG CLOUDY    65  63  92 S9        29.99R
*ROCKSPRINGS   PTSUNNY   68  63  83 S10       30.01R
*BOERNE STAGE  CLOUDY    63  63 100 S7        30.00R
*CASTROVILLE   CLOUDY    68  66  96 SE7       29.99R FOG
HONDO          CLOUDY    68  66  93 SE8       29.98R FOG
*UVALDE        CLOUDY    67  65  91 SE5       29.98R FOG
DEL RIO        CLOUDY    63  60  90 CALM      29.96R FOG
LAUGHLIN AFB   CLOUDY    63  63 100 SW2       29.96R
CARRIZO SPRGS  CLOUDY    68  64  88 CALM      29.95R FOG
*EAGLE PASS    PTSUNNY   68  61  77 CALM      29.96R
$$

TXZ173-191>194-202-209-217>225-228-271700-
CENTRAL AND SOUTH CENTRAL TEXAS

CITY           SKY/WX    TMP DP  RH WIND       PRES   REMARKS
GEORGETOWN     PTSUNNY   72  63  73 S12       29.96S
AUSTIN/BERGSTM CLOUDY    74  66  76 S16       29.96S
AUSTIN/MABRY   CLOUDY    72  65  78 VRB7      29.97F
*AUSTIN/EXEC   CLOUDY    72  66  83 S10       29.98S
*LAGO VISTA    CLOUDY    69  65  85 SE8       29.98S
SAN MARCOS     PTSUNNY   72  66  83 SE12      29.98S
NEW BRAUNFELS  CLOUDY    73  67  81 S12       29.96S
RANDOLPH AFB   CLOUDY    70  68  94 S10       29.97R
PT SAN ANTONIO CLOUDY    69  65  86 SE7       29.96R
SAN ANTONIO    CLOUDY    69  64  84 SE8       29.98R
STINSON FIELD  CLOUDY    71  64  78 SE6       29.96R
*PLEASANTON    CLOUDY    71  65  83 SE5       29.97R
*LA GRANGE     PTSUNNY   76  70  80 S9        29.97S
*GIDDINGS      PTSUNNY  N/A N/A N/A S9        29.99S
*GONZALES      CLOUDY    74  70  86 S12G18    29.98R
$$

TXZ163>164-176>182-195>201-210>213-226-227-235-271700-
SOUTHEAST TEXAS

CITY           SKY/WX    TMP DP  RH WIND       PRES   REMARKS
COLLEGE STN    PTSUNNY   73  68  84 S10       30.00S
*BRYAN         CLOUDY    73  68  85 SE12      30.01S
*CALDWELL      NOT AVBL
*CROCKETT      MOSUNNY   72  66  83 S9        30.05S
*BRENHAM       PTSUNNY   74  71  89 SE9       30.00F
HUNTSVILLE     PTSUNNY   73  66  78 S8        30.02S
CONROE         CLOUDY    74  67  78 S9        30.03R
HOUSTON BUSH   PTSUNNY   75  68  78 SE10      30.02R
HOUSTON HOBBY  PTSUNNY   74  69  85 S7        30.02R
*HOUSTON SW AP CLOUDY    74  69  83 SE7       30.03R
PEARLAND       CLOUDY    77  69  76 SE12      30.03R
HOUSTON HOOKS  PTSUNNY   76  68  76 S8        30.02S
ELLINGTON FLD  NOT AVBL
SUGAR LAND     CLOUDY    74  70  87 SE7       30.01R
*HOUSTON EXEC  PTSUNNY   73  70  88 SE6       30.02S
*CLEVELAND MUN CLOUDY    73  69  85 S7        30.05R FOG
*WHARTON       MOSUNNY   76  67  75 SE9       30.01S
*COLUMBUS      PTSUNNY   73  68  87 S7        30.02R
*EAGLE LAKE    CLOUDY    77  72  86 S7        30.00S
$$

TXZ214>216-236>238-271700-
THE UPPER TEXAS COAST

CITY           SKY/WX    TMP DP  RH WIND       PRES   REMARKS
*ORANGE        CLOUDY    73  69  88 S10       30.07S
PORT ARTHUR    PTSUNNY   78  68  71 S13       30.04S
GALVESTON      MOSUNNY   74  70  87 SE12      30.03S
ANGLETON       CLOUDY    76  70  82 S12       30.01R
*BAY CITY      CLOUDY    77  72  84 SE8       30.00S
PALACIOS       CLOUDY    74  70  87 E9        29.99R
$$

TXZ229>234-239>247-271700-
TEXAS COASTAL BEND AND RIO GRANDE PLAINS

CITY           SKY/WX    TMP DP  RH WIND       PRES   REMARKS
VICTORIA       CLOUDY    74  69  85 S5        29.99S
*BEEVILLE      CLOUDY    73  73 100 S6        29.97S
ROCKPORT       MOSUNNY   78  70  76 S7        29.97R
*PORT ARANSAS  SUNNY     73  69  90 SE8       29.97R
*PORT LAVACA   MOSUNNY   73  71  95 CALM      29.99R
*INGLESIDE     CLOUDY    76  71  87 S9        29.97R
CORPUS CHRISTI PTSUNNY   76  71  85 SE15      29.96R
CORPUS NAS     PTSUNNY   73  73 100 SE9       29.96R
*ROBSTOWN      CLOUDY    75  70  83 CALM      29.97R
ALICE          CLOUDY    74  67  78 S10       29.95R
KINGSVILLE NAS PTSUNNY   76  71  85 S9        29.95R
COTULLA        CLOUDY    73  65  75 S6        29.95R
*FAITH RANCH   CLOUDY    66  66 100 CALM      29.96R
LAREDO         MOSUNNY   74  66  76 S6        29.94R
$$

TXZ248>255-271700-
DEEP SOUTH TEXAS

CITY           SKY/WX    TMP DP  RH WIND       PRES   REMARKS
BROWNSVILLE    PTSUNNY   79  69  71 S17       29.94S
PORT ISABEL    PTSUNNY   80  69  69 S21G29    29.93S
*SOUTH PADRE   NOT AVBL
HARLINGEN      PTSUNNY   80  70  71 S21       29.92S
*HEBBRONVILLE  CLOUDY    70  65  83 S6        29.95R
MCALLEN        CLOUDY    77  69  76 S20G25    29.94R
*WESLACO       CLOUDY    78  68  72 S14G22    29.92S
FALFURRIAS     CLOUDY    75  68  79 S12       29.95R
EDINBURG       CLOUDY    79  67  68 S16G23    29.93R
*ZAPATA        SUNNY     76  65  66 SE8       29.92R
$$

TXZ213>215-236>238-242>244-246-247-251-254-255-271700-
CMAN STATIONS

STATION/POSITION TIME  TEMP    WIND        PRES    WAVE
                       AIR SEA DIR/SP/G            HT/PER
                 (UTC) (F)     (DEG/KT/KT) (MB)    (FT/S)
SABINE PASS      1548   68 68  140/  9/ 10 1019.0
SEA RIM ST PARK  1500   68     150/  8/ 10 1017.9
NORTH JETTY/GLS  1548   73 67  120/  9/ 10   N/A
EAGLE POINT      1548   68 67  150/  7/  8 1016.8
MORGANS POINT    1548   70 67  130/  6/  8 1017.0
MISSION/ARANSAS  1500   70                 1015.0
PORT O`CONNOR    1548   71      90/  6/  7 1015.1
PORT ARANSAS     1500   69 66   80/  6/  7 1014.3
MALAQUITE BEACH  1548   69 69   90/  8/  9 1015.1
BAFFIN BAY       1548   72 70  100/  6/  9 1014.5
PORT ISABEL      1548   76 72  160/ 13/ 23 1013.7
$$

GMZ080-GMZ150>470-271700-
OFFSHORE BUOY REPORTS

STATION/POSITION TIME  TEMP    WIND        PRES    WAVE
                       AIR SEA DIR/SP/G            HT/PER
                 (UTC) (F)     (DEG/KT/KT) (MB)    (FT/S)
20 E GALVESTON   1550   68 66  130/ 10/ 10 1017.1    3/ 6
90 E PT ARANSAS  1550   72 70  110/ 10/ 10 1015.6    5/ 7
35 NE PT MANSFLD 1550   74     160/ 12/ 14 1013.7    4/ 6
200 E PT ISABEL  1550   76 74  150/ 16/ 19 1016.2    5/ 7
$$




USA.gov is the U.S. government's official web portal to all federal, state and local government web resources and services.